Weather Roundup
Issued by NWS

Home | Current Version | Previous Version | Text Only | Print | Product List | Glossary On
Versions: 1 2 3 4 5 6 7 8 9 10 11 12 13 14 15 16 17 18 19 20 21 22 23 24 25 26 27 28 29 30 31 32 33 34 35 36 37 38 39 40 41 42 43 44 45 46 47 48 49 50
121
NZUS93 KARX 180059
HRRWXR

CURRENT HOURLY OBSERVATIONS ACROSS
MUCH OF THE UPPER MISSISSIPPI VALLEY
NATIONAL WEATHER SERVICE LA CROSSE WI
800 PM CDT THU AUG 17 2017


...SOUTHEAST MINNESOTA...


CITY           SKY/WX    TMP DP  RH WIND       PRES   REMARKS
ROCHESTER      PTCLDY    67  64  90 W12       29.81R
ROCHESTER/MAYO MOCLDY    70  61  74 W14       29.80S
WINONA         CLOUDY    72  63  73 NW10G16   29.76R
AUSTIN         CLOUDY    70  63  78 NW9G17    29.83R
ALBERT LEA     MOCLDY    72  64  78 W6        29.84S
DODGE CENTER   PTCLDY    66  63  88 W9        29.83R
PRESTON        PTCLDY    67  62  85 NW12      29.81R
OWATONNA       CLOUDY    70  63  78 NW9       29.83R
FARIBAULT      CLOUDY    70  63  78 NW6       29.83R
$$

...ELSEWHERE IN MINNESOTA...


CITY           SKY/WX    TMP DP  RH WIND       PRES   REMARKS
MINNEAPOLIS    MOCLDY    71  60  68 NW8       29.80R
INTNL FALLS    MOCLDY    64  59  83 W3        29.81R
DULUTH         CLOUDY    61  60  97 NW12G20   29.77R
RED WING       CLOUDY    72  61  68 NW7       29.77R
REDWOOD FALLS  CLEAR     71  61  70 NW7       29.84F
MANKATO        PTCLDY    70  62  76 NW6       29.84R
WORTHINGTON    CLEAR     70  63  78 W5        29.90R
FAIRMONT       CLEAR     70  63  78 NW6       29.86S
$$

...SOUTHWEST WISCONSIN...


CITY           SKY/WX    TMP DP  RH WIND       PRES   REMARKS
LA CROSSE      CLOUDY    72  64  76 NW8       29.74R
PRAIRIE DU CHI CLOUDY    73  62  67 W9        29.76R
BOSCOBEL       CLOUDY    72  64  76 SW3       29.75R
LONE ROCK      CLOUDY    70  63  78 W12       29.74R
PLATTEVILLE    NOT AVBL
FORT MC COY    CLOUDY    67  61  80 W9        29.74R
CAMP DOUGLAS   MOCLDY    66  61  84 W14       29.72R
MAUSTON-NEW LI CLOUDY    65  62  89 W9        29.72R
VIROQUA        CLOUDY    65  64  94 NW6       29.77R
WIS DELLS      CLOUDY    66  60  80 W13G22    29.72R
$$

...ELSEWHERE IN WISCONSIN...


CITY           SKY/WX    TMP DP  RH WIND       PRES   REMARKS
MILWAUKEE      MOCLDY    74  66  76 W13       29.69R
MADISON        CLOUDY    68  63  84 W16G25    29.71R
GREEN BAY      CLOUDY    70  69  97 W18       29.59R
EAU CLAIRE     CLOUDY    66  60  81 NW13G23   29.74R
BLACK RVR FLS  CLOUDY    67  62  85 NW10G16   29.73R
MEDFORD        CLOUDY    62  59  89 NW13G18   29.69R
WAUSAU         CLOUDY    65  61  87 NW16      29.63R
WIS RAPIDS     CLOUDY    65  62  90 W12G22    29.70R
MARSHFIELD     CLOUDY    63  60  90 W13       29.69R FOG
RICE LAKE      DRIZZLE   63  61  93 NW10G17   29.77R
$$

...NORTHEAST IOWA...


CITY           SKY/WX    TMP DP  RH WIND       PRES   REMARKS
WATERLOO       MOCLDY    72  61  68 W10       29.82R
DUBUQUE        CLOUDY    71  63  75 W12       29.79S
DECORAH        CLOUDY    70  64  83 NW9G17    29.79R
MASON CITY     CLOUDY    70  62  76 NW13      29.87R
CHARLES CITY   PTCLDY    70  64  83 W10       29.84R
OELWEIN        CLEAR     70  64  83 W13       29.82S
$$

...ELSEWHERE IN IOWA...


CITY           SKY/WX    TMP DP  RH WIND       PRES   REMARKS
DES MOINES     PTCLDY    78  59  51 W10       29.86S
IOWA CITY      PTCLDY    76  64  66 NW9       29.84R
FORT DODGE     PTCLDY    73  61  64 W7        29.88R
MARSHALLTOWN   CLEAR     71  65  81 W6        29.84S
CEDAR RAPIDS   CLEAR     71  64  78 W10       29.83R
$$

...NORTHERN ILLINOIS...


CITY           SKY/WX    TMP DP  RH WIND       PRES   REMARKS
CHICAGO-OHARE  MOCLDY    78  64  61 W20       29.74R
CHICAGO-MIDWAY MOCLDY    80  65  59 W12       29.74R
MOLINE         PTCLDY    76  63  64 W13       29.81R
ROCKFORD       CLOUDY    74  64  71 W17G26    29.77R
PEORIA         CLEAR     77  65  66 NW6       29.83R
$$

NOTE: "FAIR" INDICATES FEW OR NO CLOUDS BELOW 12,000 FEET WITH NO
SIGNIFICANT WEATHER AND/OR OBSTRUCTIONS TO VISIBILITY. WIND
SPEEDS ARE IN MILES-PER-HOUR.




USA.gov is the U.S. government's official web portal to all federal, state and local government web resources and services.